Location: Ahausen
(50.4985°N, 8.2722°E)
Time: 08:28:11
(UTC+00:00)

QB50P2 - Visible Passes

Search period start: 25 June 2022 00:00
Search period end: 05 July 2022 00:00
Orbit: 589 x 607 km, 97.9° (Epoch: 24 June)

Date Brightness Start Highest point End Pass type
(mag) Time Alt. Az. Time Alt. Az. Time Alt. Az.
25 Jun ? 00:38:56 10° NNE 00:43:04 51° E 00:45:47 20° S visible
25 Jun ? 02:15:15 10° NNW 02:18:26 21° WNW 02:21:36 10° WSW visible
26 Jun ? 00:49:22 10° NNE 00:53:34 65° ESE 00:56:22 20° S visible
26 Jun ? 02:26:00 10° NNW 02:28:48 17° WNW 02:31:36 10° W visible
27 Jun ? 00:59:49 10° NNE 01:04:04 82° ESE 01:06:57 20° S visible
27 Jun ? 23:36:24 10° ENE 23:38:19 13° E 23:40:15 10° ESE visible
28 Jun ? 01:10:18 10° NNE 01:14:32 80° WNW 01:17:32 19° SSW visible
28 Jun ? 23:46:16 10° NE 23:48:55 16° E 23:51:24 11° SE visible
29 Jun ? 01:20:49 10° N 01:25:00 63° WNW 01:28:06 17° SSW visible
29 Jun ? 23:56:21 10° NE 23:59:30 20° E 00:01:58 13° SE visible
30 Jun ? 01:31:20 10° N 01:35:26 50° WNW 01:38:41 16° SW visible
01 Jul ? 00:06:33 10° NE 00:10:04 25° E 00:12:32 15° SE visible
01 Jul ? 01:41:54 10° N 01:45:51 40° WNW 01:49:15 13° SW visible
02 Jul ? 00:16:50 10° NNE 00:20:37 31° E 00:23:06 17° SSE visible
02 Jul ? 01:52:29 10° N 01:56:16 32° WNW 01:59:48 11° SW visible
03 Jul ? 00:27:09 10° NNE 00:31:08 38° E 00:33:40 19° SSE visible
03 Jul ? 02:03:06 10° N 02:06:40 27° WNW 02:10:13 10° WSW visible
04 Jul ? 00:37:30 10° NNE 00:41:39 48° E 00:44:13 21° SSE visible
04 Jul ? 02:13:45 10° NNW 02:17:02 22° WNW 02:20:18 10° WSW visible
